Flag for Rwanda Weather past 2 weeks in Kigali, Rwanda

Now
68 °F

Passing clouds.


Feels Like: 68 °F
Forecast: 63 / 77 °F
Wind: No wind

Location: Kigali Airport

Current Time: May 29, 2015 at 1:06:22 AM

Latest Report: May 29, 2015 at 12:30 AM


Visibility: N/A

Pressure: 30.12 "Hg

Humidity: 94%

Dew point: 66 °F

Location of KigaliLocation

Historic Weather in Kigali — Graph

°F

Kigali temperature yesterday

Maximum temperature yesterday: 82 °F (at 3:30 PM)
Minimum temperature yesterday: 64 °F (at 5:00 AM)
Average temperature yesterday: 73 °F

Past Weeks' High & Low Weather Summary

 TemperatureHumidityPressure
High82 °F (May 15, 3:00 PM)100% (May 14, 12:30 AM)30.27 "Hg (May 14, 12:30 AM)
Low61 °F (May 15, 4:30 AM)51% (May 17, 3:30 PM)30.04 "Hg (May 17, 4:30 PM)
Average71 °F82%30.16 "Hg
* Reported May 13 11:00 PM — May 28 11:30 PM, Kigali, Weather by CustomWeather, © 2015

Note: Actual official high and low records may vary slightly from our data, if they occured in-between our weather recording intervals... More about our weather records

Advertising

Kigali weather history for previous 24 hours

 ConditionsComfort  
Time TempWeatherWind HumidityBarometerVisibility
11:30 PM
Thu, May 28
70 °FPassing clouds.3 mph83%30.12 "HgN/A
11:00 PM70 °FPassing clouds.5 mph83%30.15 "HgN/A
10:30 PM70 °FPassing clouds.No wind83%30.15 "HgN/A
10:00 PM70 °FPassing clouds.No wind83%30.12 "HgN/A
9:30 PM70 °FPassing clouds.No wind83%30.12 "HgN/A
9:00 PM70 °FPassing clouds.No wind78%30.12 "HgN/A
8:30 PM72 °FPassing clouds.No wind78%30.09 "HgN/A
8:00 PM72 °FPassing clouds.No wind73%30.09 "HgN/A
7:30 PM73 °FPassing clouds.No wind69%30.07 "HgN/A
7:00 PM75 °FPassing clouds.No wind65%30.07 "HgN/A
6:30 PM77 °FPassing clouds.No wind57%30.07 "HgN/A
6:00 PM79 °FPassing clouds.3 mph58%30.07 "HgN/A
5:30 PM79 °FScattered clouds.5 mph54%30.07 "HgN/A
5:00 PM81 °FScattered clouds.7 mph54%30.04 "HgN/A
4:30 PM81 °FScattered clouds.7 mph51%30.04 "HgN/A
4:00 PM82 °FScattered clouds.5 mph51%30.04 "HgN/A
3:30 PM82 °FScattered clouds.7 mph55%30.07 "HgN/A
3:00 PM81 °FScattered clouds.7 mph54%30.07 "HgN/A
2:00 PM81 °FScattered clouds.5 mph54%30.09 "HgN/A
1:30 PM81 °FScattered clouds.3 mph54%30.12 "HgN/A
1:00 PM79 °FScattered clouds.8 mph61%30.12 "HgN/A
12:30 PM77 °FScattered clouds.8 mph65%30.15 "HgN/A
12:00 PM79 °FScattered clouds.6 mph61%30.15 "HgN/A
11:30 AM77 °FScattered clouds.7 mph61%30.18 "HgN/A
11:20 AM77 °FScattered clouds.7 mph69%30.18 "HgN/A
10:30 AM75 °FScattered clouds.6 mph69%30.21 "HgN/A
10:00 AM75 °FScattered clouds.7 mph69%30.21 "HgN/A
9:30 AM75 °FScattered clouds.3 mph74%30.21 "HgN/A
9:00 AM72 °FScattered clouds.3 mph83%30.21 "Hg5 mi
8:30 AM72 °FPartly sunny.3 mph88%30.21 "Hg5 mi
7:30 AM70 °FPassing clouds.5 mph88%30.18 "HgN/A
7:00 AM64 °FPassing clouds.No wind100%30.18 "HgN/A
6:30 AM64 °FPassing clouds.3 mph100%30.15 "HgN/A
6:00 AM64 °FPassing clouds.3 mph100%30.15 "HgN/A
5:30 AM64 °FPassing clouds.5 mph100%30.15 "HgN/A
5:00 AM64 °FPassing clouds.No wind100%30.15 "HgN/A
4:00 AM66 °FPassing clouds.No wind94%30.15 "HgN/A
2:00 AM66 °FPassing clouds.3 mph94%30.12 "HgN/A
1:30 AM68 °FPassing clouds.3 mph88%30.15 "HgN/A
1:00 AM68 °FPassing clouds.No wind88%30.15 "HgN/A
Weather by CustomWeather, © 2015

See weather overviewHow to use our weather pages